Miscellaneous Local Product
Issued by NWS Hastings, NE

Home | Current Version | Previous Version | Graphics & Text | Print | Product List | Glossary On
Versions: 1 2 3 4 5 6 7 8 9 10 11 12 13 14 15 16 17 18 19 20 21 22 23 24 25 26 27 28 29 30 31 32 33 34 35 36 37 38 39 40 41 42 43 44 45 46 47 48 49 50
000
AXUS43 KGID 231702
MISGRI

GID CWA HOURLY WEATHER ROUNDUP
NATIONAL WEATHER SERVICE HASTINGS NE
1200 PM CDT TUE AUG 23 2016

NOTE: "FAIR" INDICATES FEW OR NO CLOUDS BELOW 12,000 FEET WITH NO
SIGNIFICANT WEATHER AND/OR OBSTRUCTIONS TO VISIBILITY.

...SOUTH CENTRAL NEBRASKA...

CITY           SKY/WX    TMP DP  RH WIND       PRES   REMARKS
GRAND ISLAND   PTSUNNY   81  68  64 S21G28    29.85F
HASTINGS       PTSUNNY   81  67  62 S15G24    29.86S
KEARNEY        PTSUNNY   81  66  61 S17       29.83S
ORD            CLOUDY    76  67  73 S14       29.82F
YORK           CLOUDY    77  70  78 S17G23    29.87F
AURORA         CLOUDY    80  71  72 S20G25    29.85F
LEXINGTON      MOSUNNY   80  66  61 S12       29.84S
HOLDREGE       SUNNY     81  65  57 S13G22    29.84S
HEBRON         PTSUNNY   81  71  72 S20G25    29.88F

...NEBRASKA PANHANDLE...

CITY           SKY/WX    TMP DP  RH WIND       PRES   REMARKS
CHADRON        SUNNY     80  31  16 NW16      29.91R
ALLIANCE       SUNNY     79  38  22 NW21G28   29.92R
SCOTTSBLUFF    SUNNY     79  35  20 NW16G28   29.96S
SIDNEY         SUNNY     83  36  18 N20       29.98R

...WESTERN AND NORTH CENTRAL NEBRASKA...

CITY           SKY/WX    TMP DP  RH WIND       PRES   REMARKS
VALENTINE      SUNNY     84  57  39 W13       29.78S
AINSWORTH      SUNNY     81  66  61 S14G20    29.80F
ONEILL         CLOUDY    74  65  73 S17G24    29.83S
BROKEN BOW     PTSUNNY   77  68  73 S13       29.83S
IMPERIAL       SUNNY     82  60  47 NW6       29.88S
NORTH PLATTE   SUNNY     81  65  58 SW6       29.84S
MCCOOK         SUNNY     80  64  58 CALM      29.84R

...EASTERN NEBRASKA...

CITY           SKY/WX    TMP DP  RH WIND       PRES   REMARKS
NORFOLK        CLOUDY    65  63  93 E9        29.86F
SO SIOUX CITY  CLOUDY    73  67  81 SE14      29.89F
TEKAMAH        CLOUDY    73  68  84 SE14      29.91F
COLUMBUS       CLOUDY    75  64  69 SE10G20   29.86F
ALBION         CLOUDY    72  69  92 SE6       29.86F
OMAHA EPPLEY   CLOUDY    74  68  81 SE14      29.93F
OFFUTT AFB     CLOUDY    74  71  88 SE17G23   29.93F
MILLARD        CLOUDY    75  71  87 SE15      29.92F
LINCOLN        CLOUDY    81  71  71 S18G26    29.89F
NEBRASKA CITY  CLOUDY    76  73  91 S17       29.94F
BEATRICE       MOSUNNY   79  71  76 S20G28    29.90F
FALLS CITY     CLOUDY    79  71  76 S15       29.96F

...NORTHERN KANSAS...

CITY           SKY/WX    TMP DP  RH WIND       PRES   REMARKS
GOODLAND         N/A     82  55  39 NW12      29.91R
HILL CITY      SUNNY     86  64  47 S17G26    29.84S
NORTON         SUNNY     88  54  31 S15       29.83S
SMITH CENTER   SUNNY     88  66  48 S20G28    29.85F HX  90
BELOIT         MOSUNNY   82  72  69 S16G25    29.85F
HAYS           SUNNY     88  63  42 SW26G32   29.85S
RUSSELL        SUNNY     86  69  56 S23G33    29.85F HX  90
CONCORDIA      CLOUDY    86  70  58 S23G31    29.88F HX  90
SALINA         MOSUNNY   88  71  57 S23G40    29.89F HX  94
TOPEKA         CLOUDY    83  72  69 S18G25    29.97F



USA.gov is the U.S. government's official web portal to all federal, state and local government web resources and services.